Thunder radar more information blitzortung!


Rain radar more information rain snow radar


Equipment we use:

Davis VP2

Weather Display

BareMetal


Weather Underground History page Text

Daily Summary for August 19, 2017 Units:  Metric    English   Both
« Previous Day
Next Day »
Daily Weekly Monthly Yearly Custom
  Current: High: Low: Average:
Temperature: 18.2 °C 22.7 °C 16.4 °C 19 °C
Dew Point: 12.4 °C 14.7 °C 11.7 °C 12.9 °C
Humidity: 69 % 82 % 53 % 69 %
Wind Speed: 29.6 km/h 29.6 km/h 29.6 km/h 29.6 km/h
Wind Gust: 0.0 km/h 29.6 km/h - -
Wind:WSW - - West
Pressure: 1020.9 hPa 1022.9 hPa 1019.9 hPa -
Precipitation: 0.0 mm      
Historical Graphs
 
 
Tabular Data for August 19, 2017
Time Temperature Dew Point Pressure Wind Wind Speed Wind Gust Humidity Rainfall Rate (Hourly)
00:04 17.8 °C 14.7 °C 1019.9 hPa West 29.6 km/h 29.6 km/h 82 % 0.0 mm
00:09 17.8 °C 14.5 °C 1019.9 hPa West 29.6 km/h 29.6 km/h 81 % 0.0 mm
00:14 17.8 °C 14.3 °C 1019.9 hPa WNW 29.6 km/h 29.6 km/h 80 % 0.0 mm
00:19 17.8 °C 14.3 °C 1019.9 hPa WNW 29.6 km/h 29.6 km/h 80 % 0.0 mm
00:24 17.9 °C 14.2 °C 1019.9 hPa WNW 29.6 km/h 29.6 km/h 79 % 0.0 mm
00:29 17.9 °C 14.2 °C 1019.9 hPa WNW 29.6 km/h 29.6 km/h 79 % 0.0 mm
00:34 17.9 °C 14.4 °C 1019.9 hPa WNW 29.6 km/h 29.6 km/h 80 % 0.0 mm
00:39 17.9 °C 14.4 °C 1019.9 hPa WNW 29.6 km/h 29.6 km/h 80 % 0.0 mm
00:44 17.8 °C 14.3 °C 1019.9 hPa WNW 29.6 km/h 29.6 km/h 80 % 0.0 mm
00:49 17.8 °C 14.3 °C 1019.9 hPa WNW 29.6 km/h 29.6 km/h 80 % 0.0 mm
00:54 17.8 °C 14.3 °C 1019.9 hPa West 29.6 km/h 29.6 km/h 80 % 0.0 mm
00:59 17.8 °C 14.1 °C 1019.9 hPa NW 29.6 km/h 29.6 km/h 79 % 0.0 mm
01:04 17.8 °C 14.1 °C 1019.9 hPa WSW 29.6 km/h 29.6 km/h 79 % 0.0 mm
01:09 17.8 °C 14.1 °C 1019.9 hPa WNW 29.6 km/h 29.6 km/h 79 % 0.0 mm
01:14 17.7 °C 13.8 °C 1019.9 hPa WSW 29.6 km/h 29.6 km/h 78 % 0.0 mm
01:19 17.8 °C 13.5 °C 1019.9 hPa NW 29.6 km/h 29.6 km/h 76 % 0.0 mm
01:24 17.8 °C 13.3 °C 1019.9 hPa WNW 29.6 km/h 29.6 km/h 75 % 0.0 mm
01:29 17.8 °C 13.3 °C 1019.9 hPa West 29.6 km/h 29.6 km/h 75 % 0.0 mm
01:34 17.8 °C 13.3 °C 1019.9 hPa WSW 29.6 km/h 29.6 km/h 75 % 0.0 mm
01:39 17.8 °C 13.6 °C 1019.9 hPa WNW 29.6 km/h 29.6 km/h 76 % 0.0 mm
01:44 17.7 °C 13.6 °C 1019.9 hPa WSW 29.6 km/h 29.6 km/h 77 % 0.0 mm
01:49 17.7 °C 13.6 °C 1019.9 hPa West 29.6 km/h 29.6 km/h 77 % 0.0 mm
01:54 17.6 °C 13.6 °C 1019.9 hPa WNW 29.6 km/h 29.6 km/h 77 % 0.0 mm
02:00 17.6 °C 13.3 °C 1019.9 hPa WNW 29.6 km/h 29.6 km/h 76 % 0.0 mm
02:05 17.6 °C 13.1 °C 1019.9 hPa SW 29.6 km/h 29.6 km/h 75 % 0.0 mm
02:10 17.6 °C 13.1 °C 1019.9 hPa NW 29.6 km/h 29.6 km/h 75 % 0.0 mm
02:15 17.6 °C 13.1 °C 1019.9 hPa West 29.6 km/h 29.6 km/h 75 % 0.0 mm
02:20 17.5 °C 13.0 °C 1019.9 hPa WNW 29.6 km/h 29.6 km/h 75 % 0.0 mm
02:25 17.5 °C 12.8 °C 1019.9 hPa WNW 29.6 km/h 29.6 km/h 74 % 0.0 mm
02:30 17.5 °C 13.0 °C 1019.9 hPa WNW 29.6 km/h 29.6 km/h 75 % 0.0 mm
02:35 17.5 °C 13.0 °C 1019.9 hPa NW 29.6 km/h 29.6 km/h 75 % 0.0 mm
02:40 17.4 °C 12.9 °C 1019.9 hPa WNW 29.6 km/h 29.6 km/h 75 % 0.0 mm
02:45 17.4 °C 12.9 °C 1019.9 hPa NW 29.6 km/h 29.6 km/h 75 % 0.0 mm
02:50 17.4 °C 13.1 °C 1019.9 hPa WSW 29.6 km/h 29.6 km/h 76 % 0.0 mm
02:55 17.3 °C 13.1 °C 1019.9 hPa WNW 29.6 km/h 29.6 km/h 76 % 0.0 mm
03:00 17.3 °C 13.0 °C 1019.9 hPa WNW 29.6 km/h 29.6 km/h 76 % 0.0 mm
03:05 17.2 °C 12.9 °C 1019.9 hPa West 29.6 km/h 29.6 km/h 76 % 0.0 mm
03:10 17.2 °C 12.9 °C 1019.9 hPa NW 29.6 km/h 29.6 km/h 76 % 0.0 mm
03:15 17.2 °C 12.9 °C 1019.9 hPa WNW 29.6 km/h 29.6 km/h 76 % 0.0 mm
03:20 17.2 °C 12.9 °C 1020.2 hPa West 29.6 km/h 29.6 km/h 76 % 0.0 mm
03:25 17.2 °C 12.9 °C 1020.2 hPa WSW 29.6 km/h 29.6 km/h 76 % 0.0 mm
03:30 17.2 °C 12.9 °C 1019.9 hPa NW 29.6 km/h 29.6 km/h 76 % 0.0 mm
03:35 17.2 °C 12.9 °C 1019.9 hPa WNW 29.6 km/h 29.6 km/h 76 % 0.0 mm
03:40 17.1 °C 12.8 °C 1019.9 hPa West 29.6 km/h 29.6 km/h 76 % 0.0 mm
03:45 17.1 °C 12.6 °C 1019.9 hPa West 29.6 km/h 29.6 km/h 75 % 0.0 mm
03:50 17.0 °C 12.6 °C 1020.2 hPa WSW 29.6 km/h 29.6 km/h 75 % 0.0 mm
03:55 17.0 °C 12.6 °C 1020.2 hPa WNW 29.6 km/h 29.6 km/h 75 % 0.0 mm
04:00 16.9 °C 12.7 °C 1020.2 hPa WNW 29.6 km/h 29.6 km/h 76 % 0.0 mm
04:05 16.9 °C 12.7 °C 1020.5 hPa West 29.6 km/h 29.6 km/h 76 % 0.0 mm
04:10 16.9 °C 12.7 °C 1020.2 hPa WNW 29.6 km/h 29.6 km/h 76 % 0.0 mm
04:15 16.9 °C 12.7 °C 1020.2 hPa West 29.6 km/h 29.6 km/h 76 % 0.0 mm
04:20 16.9 °C 12.9 °C 1020.2 hPa WNW 29.6 km/h 29.6 km/h 77 % 0.0 mm
04:25 16.9 °C 12.7 °C 1020.2 hPa WNW 29.6 km/h 29.6 km/h 76 % 0.0 mm
04:30 16.9 °C 12.4 °C 1020.2 hPa WNW 29.6 km/h 29.6 km/h 75 % 0.0 mm
04:35 16.9 °C 12.4 °C 1020.2 hPa West 29.6 km/h 29.6 km/h 75 % 0.0 mm
04:40 16.9 °C 12.5 °C 1020.2 hPa NW 29.6 km/h 29.6 km/h 75 % 0.0 mm
04:45 17.0 °C 12.7 °C 1020.2 hPa WNW 29.6 km/h 29.6 km/h 76 % 0.0 mm
04:50 17.1 °C 12.8 °C 1020.5 hPa NW 29.6 km/h 29.6 km/h 76 % 0.0 mm
04:55 17.1 °C 12.8 °C 1020.5 hPa West 29.6 km/h 29.6 km/h 76 % 0.0 mm
05:00 17.0 °C 12.6 °C 1020.5 hPa WSW 29.6 km/h 29.6 km/h 75 % 0.0 mm
05:05 17.0 °C 12.6 °C 1020.5 hPa West 29.6 km/h 29.6 km/h 75 % 0.0 mm
05:10 17.0 °C 12.6 °C 1020.5 hPa West 29.6 km/h 29.6 km/h 75 % 0.0 mm
05:15 17.0 °C 12.9 °C 1020.5 hPa WNW 29.6 km/h 29.6 km/h 77 % 0.0 mm
05:20 16.9 °C 12.9 °C 1020.5 hPa WNW 29.6 km/h 29.6 km/h 77 % 0.0 mm
05:25 16.9 °C 12.8 °C 1020.5 hPa SW 29.6 km/h 29.6 km/h 77 % 0.0 mm
05:30 16.8 °C 12.6 °C 1020.5 hPa SW 29.6 km/h 29.6 km/h 76 % 0.0 mm
05:35 16.8 °C 12.5 °C 1020.9 hPa NW 29.6 km/h 29.6 km/h 76 % 0.0 mm
05:40 16.8 °C 12.7 °C 1020.9 hPa NW 29.6 km/h 29.6 km/h 77 % 0.0 mm
05:46 16.7 °C 12.4 °C 1020.9 hPa NW 29.6 km/h 29.6 km/h 76 % 0.0 mm
05:50 16.7 °C 12.4 °C 1020.9 hPa NW 29.6 km/h 29.6 km/h 76 % 0.0 mm
05:56 16.7 °C 12.4 °C 1020.9 hPa WNW 29.6 km/h 29.6 km/h 76 % 0.0 mm
06:01 16.7 °C 12.4 °C 1020.9 hPa WNW 29.6 km/h 29.6 km/h 76 % 0.0 mm
06:06 16.7 °C 12.4 °C 1020.9 hPa West 29.6 km/h 29.6 km/h 76 % 0.0 mm
06:11 16.7 °C 12.4 °C 1020.9 hPa NW 29.6 km/h 29.6 km/h 76 % 0.0 mm
06:12 16.7 °C 12.4 °C 1020.9 hPa WNW 29.6 km/h 29.6 km/h 76 % 0.0 mm
06:17 16.7 °C 12.4 °C 1020.9 hPa WNW 29.6 km/h 29.6 km/h 76 % 0.0 mm
06:22 16.6 °C 12.6 °C 1020.9 hPa NW 29.6 km/h 29.6 km/h 77 % 0.0 mm
06:27 16.6 °C 12.5 °C 1021.2 hPa WNW 29.6 km/h 29.6 km/h 77 % 0.0 mm
06:32 16.6 °C 12.5 °C 1021.2 hPa WNW 29.6 km/h 29.6 km/h 77 % 0.0 mm
06:37 16.5 °C 12.3 °C 1021.2 hPa West 29.6 km/h 29.6 km/h 76 % 0.0 mm
06:42 16.5 °C 12.3 °C 1021.2 hPa NW 29.6 km/h 29.6 km/h 76 % 0.0 mm
06:44 16.5 °C 12.3 °C 1021.2 hPa West 29.6 km/h 29.6 km/h 76 % 0.0 mm
06:49 16.5 °C 12.3 °C 1021.2 hPa WNW 29.6 km/h 29.6 km/h 76 % 0.0 mm
06:54 16.5 °C 12.3 °C 1021.2 hPa WNW 29.6 km/h 29.6 km/h 76 % 0.0 mm
06:59 16.5 °C 12.3 °C 1021.2 hPa WNW 29.6 km/h 29.6 km/h 76 % 0.0 mm
07:04 16.4 °C 12.4 °C 1021.2 hPa WNW 29.6 km/h 29.6 km/h 77 % 0.0 mm
07:09 16.4 °C 12.4 °C 1021.6 hPa WSW 29.6 km/h 29.6 km/h 77 % 0.0 mm
07:14 16.4 °C 12.4 °C 1021.6 hPa West 29.6 km/h 29.6 km/h 77 % 0.0 mm
07:19 16.4 °C 12.6 °C 1021.6 hPa West 29.6 km/h 29.6 km/h 78 % 0.0 mm
07:24 16.4 °C 12.6 °C 1021.6 hPa WNW 29.6 km/h 29.6 km/h 78 % 0.0 mm
07:29 16.4 °C 12.6 °C 1021.6 hPa WNW 29.6 km/h 29.6 km/h 78 % 0.0 mm
07:34 16.4 °C 12.6 °C 1021.6 hPa WNW 29.6 km/h 29.6 km/h 78 % 0.0 mm
07:39 16.5 °C 12.8 °C 1021.6 hPa WNW 29.6 km/h 29.6 km/h 79 % 0.0 mm
07:44 16.7 °C 12.8 °C 1021.6 hPa SW 29.6 km/h 29.6 km/h 78 % 0.0 mm
07:49 16.8 °C 12.9 °C 1021.6 hPa WNW 29.6 km/h 29.6 km/h 78 % 0.0 mm
07:54 16.8 °C 12.8 °C 1021.6 hPa WNW 29.6 km/h 29.6 km/h 77 % 0.0 mm
07:59 17.0 °C 13.1 °C 1021.9 hPa WNW 29.6 km/h 29.6 km/h 78 % 0.0 mm
08:04 17.1 °C 13.1 °C 1021.9 hPa WSW 29.6 km/h 29.6 km/h 77 % 0.0 mm
08:09 17.2 °C 13.2 °C 1021.9 hPa WNW 29.6 km/h 29.6 km/h 77 % 0.0 mm
08:14 17.3 °C 13.3 °C 1021.9 hPa West 29.6 km/h 29.6 km/h 77 % 0.0 mm
08:19 17.4 °C 13.1 °C 1021.9 hPa WNW 29.6 km/h 29.6 km/h 76 % 0.0 mm
08:24 17.4 °C 13.2 °C 1021.9 hPa West 29.6 km/h 29.6 km/h 76 % 0.0 mm
08:25 17.4 °C 13.2 °C 1022.2 hPa WNW 29.6 km/h 29.6 km/h 76 % 0.0 mm
08:30 17.4 °C 13.2 °C 1022.2 hPa West 29.6 km/h 29.6 km/h 76 % 0.0 mm
08:35 17.5 °C 13.2 °C 1022.2 hPa West 29.6 km/h 29.6 km/h 76 % 0.0 mm
08:40 17.6 °C 13.3 °C 1022.2 hPa NW 29.6 km/h 29.6 km/h 76 % 0.0 mm
08:45 17.6 °C 13.3 °C 1022.2 hPa West 29.6 km/h 29.6 km/h 76 % 0.0 mm
08:50 17.6 °C 13.3 °C 1022.2 hPa WSW 29.6 km/h 29.6 km/h 76 % 0.0 mm
08:55 17.4 °C 13.1 °C 1022.2 hPa NW 29.6 km/h 29.6 km/h 76 % 0.0 mm
09:00 17.3 °C 13.3 °C 1022.2 hPa WNW 29.6 km/h 29.6 km/h 77 % 0.0 mm
09:05 17.3 °C 13.0 °C 1022.2 hPa West 29.6 km/h 29.6 km/h 76 % 0.0 mm
09:10 17.4 °C 12.9 °C 1022.6 hPa West 29.6 km/h 29.6 km/h 75 % 0.0 mm
09:15 17.5 °C 13.0 °C 1022.6 hPa WSW 29.6 km/h 29.6 km/h 75 % 0.0 mm
09:20 17.7 °C 13.2 °C 1022.6 hPa West 29.6 km/h 29.6 km/h 75 % 0.0 mm
09:25 17.8 °C 13.3 °C 1022.6 hPa SW 29.6 km/h 29.6 km/h 75 % 0.0 mm
09:30 17.9 °C 13.2 °C 1022.2 hPa WSW 29.6 km/h 29.6 km/h 74 % 0.0 mm
09:35 17.9 °C 13.2 °C 1022.2 hPa NW 29.6 km/h 29.6 km/h 74 % 0.0 mm
09:40 17.9 °C 13.2 °C 1022.6 hPa SW 29.6 km/h 29.6 km/h 74 % 0.0 mm
09:45 17.9 °C 13.2 °C 1022.6 hPa West 29.6 km/h 29.6 km/h 74 % 0.0 mm
09:50 18.1 °C 13.2 °C 1022.6 hPa NW 29.6 km/h 29.6 km/h 73 % 0.0 mm
09:55 18.1 °C 13.2 °C 1022.6 hPa WNW 29.6 km/h 29.6 km/h 73 % 0.0 mm
10:00 18.3 °C 13.6 °C 1022.6 hPa WNW 29.6 km/h 29.6 km/h 74 % 0.0 mm
10:05 18.3 °C 13.6 °C 1022.2 hPa WNW 29.6 km/h 29.6 km/h 74 % 0.0 mm
10:11 18.4 °C 13.4 °C 1022.2 hPa NW 29.6 km/h 29.6 km/h 73 % 0.0 mm
10:15 18.4 °C 13.7 °C 1022.6 hPa West 29.6 km/h 29.6 km/h 74 % 0.0 mm
10:20 18.4 °C 13.7 °C 1022.2 hPa West 29.6 km/h 29.6 km/h 74 % 0.0 mm
10:21 18.4 °C 13.7 °C 1022.2 hPa WSW 29.6 km/h 29.6 km/h 74 % 0.0 mm
10:26 18.4 °C 13.7 °C 1022.6 hPa NW 29.6 km/h 29.6 km/h 74 % 0.0 mm
10:31 18.6 °C 13.4 °C 1022.6 hPa SW 29.6 km/h 29.6 km/h 72 % 0.0 mm
10:36 18.6 °C 13.4 °C 1022.6 hPa WNW 29.6 km/h 29.6 km/h 72 % 0.0 mm
10:41 18.5 °C 13.2 °C 1022.6 hPa NW 29.6 km/h 29.6 km/h 71 % 0.0 mm
10:46 18.5 °C 13.3 °C 1022.6 hPa WNW 29.6 km/h 29.6 km/h 72 % 0.0 mm
10:51 18.6 °C 13.4 °C 1022.6 hPa WNW 29.6 km/h 29.6 km/h 72 % 0.0 mm
10:56 18.7 °C 13.5 °C 1022.9 hPa WNW 29.6 km/h 29.6 km/h 72 % 0.0 mm
11:01 18.7 °C 13.6 °C 1022.9 hPa WNW 29.6 km/h 29.6 km/h 72 % 0.0 mm
11:06 19.0 °C 13.4 °C 1022.9 hPa NW 29.6 km/h 29.6 km/h 70 % 0.0 mm
11:11 19.0 °C 13.6 °C 1022.9 hPa WSW 29.6 km/h 29.6 km/h 71 % 0.0 mm
11:16 19.1 °C 13.7 °C 1022.6 hPa WNW 29.6 km/h 29.6 km/h 71 % 0.0 mm
11:21 19.2 °C 13.8 °C 1022.6 hPa NW 29.6 km/h 29.6 km/h 71 % 0.0 mm
11:26 19.3 °C 13.9 °C 1022.6 hPa West 29.6 km/h 29.6 km/h 71 % 0.0 mm
11:31 19.3 °C 13.7 °C 1022.6 hPa West 29.6 km/h 29.6 km/h 70 % 0.0 mm
11:36 19.6 °C 13.9 °C 1022.6 hPa WNW 29.6 km/h 29.6 km/h 70 % 0.0 mm
11:41 19.8 °C 14.0 °C 1022.6 hPa WSW 29.6 km/h 29.6 km/h 69 % 0.0 mm
11:46 19.7 °C 14.1 °C 1022.9 hPa WSW 29.6 km/h 29.6 km/h 70 % 0.0 mm
11:51 19.7 °C 14.3 °C 1022.9 hPa West 29.6 km/h 29.6 km/h 71 % 0.0 mm
11:56 19.6 °C 14.2 °C 1022.9 hPa SW 29.6 km/h 29.6 km/h 71 % 0.0 mm
12:01 19.7 °C 14.1 °C 1022.9 hPa West 29.6 km/h 29.6 km/h 70 % 0.0 mm
12:06 19.6 °C 13.9 °C 1022.9 hPa WNW 29.6 km/h 29.6 km/h 70 % 0.0 mm
12:11 19.5 °C 13.9 °C 1022.9 hPa SW 29.6 km/h 29.6 km/h 70 % 0.0 mm
12:16 19.4 °C 13.8 °C 1022.9 hPa NW 29.6 km/h 29.6 km/h 70 % 0.0 mm
12:21 19.5 °C 13.9 °C 1022.6 hPa NW 29.6 km/h 29.6 km/h 70 % 0.0 mm
12:26 19.6 °C 13.8 °C 1022.6 hPa WSW 29.6 km/h 29.6 km/h 69 % 0.0 mm
12:31 19.7 °C 13.9 °C 1022.6 hPa WSW 29.6 km/h 29.6 km/h 69 % 0.0 mm
12:36 19.9 °C 14.1 °C 1022.6 hPa WSW 29.6 km/h 29.6 km/h 69 % 0.0 mm
12:41 20.2 °C 14.3 °C 1022.6 hPa WNW 29.6 km/h 29.6 km/h 69 % 0.0 mm
12:46 20.3 °C 14.2 °C 1022.6 hPa SW 29.6 km/h 29.6 km/h 68 % 0.0 mm
12:51 20.1 °C 14.0 °C 1022.6 hPa West 29.6 km/h 29.6 km/h 68 % 0.0 mm
12:56 19.9 °C 13.3 °C 1022.6 hPa WSW 29.6 km/h 29.6 km/h 66 % 0.0 mm
13:01 19.8 °C 13.3 °C 1022.9 hPa WSW 29.6 km/h   66 % 0.0 mm
13:06 20.2 °C 12.9 °C 1022.9 hPa WNW 29.6 km/h 29.6 km/h 63 % 0.0 mm
13:11 20.5 °C 13.4 °C 1022.9 hPa West 29.6 km/h 29.6 km/h 64 % 0.0 mm
13:16 20.8 °C 13.7 °C 1022.9 hPa West 29.6 km/h   64 % 0.0 mm
13:21 20.8 °C 13.8 °C 1022.9 hPa NW 29.6 km/h 29.6 km/h 64 % 0.0 mm
13:26 20.8 °C 13.3 °C 1022.6 hPa WNW 29.6 km/h 29.6 km/h 62 % 0.0 mm
13:31 20.9 °C 12.9 °C 1022.6 hPa SSW 29.6 km/h 29.6 km/h 60 % 0.0 mm
13:36 20.9 °C 11.8 °C 1022.6 hPa WSW 29.6 km/h 29.6 km/h 56 % 0.0 mm
13:41 20.8 °C 13.1 °C 1022.6 hPa West 29.6 km/h 29.6 km/h 61 % 0.0 mm
13:46 20.9 °C 13.1 °C 1022.6 hPa SE 29.6 km/h 29.6 km/h 61 % 0.0 mm
13:51 21.1 °C 13.0 °C 1022.6 hPa West 29.6 km/h 29.6 km/h 60 % 0.0 mm
13:56 20.9 °C 12.4 °C 1022.6 hPa WNW 29.6 km/h 29.6 km/h 58 % 0.0 mm
14:01 21.1 °C 12.0 °C 1022.6 hPa West 29.6 km/h 29.6 km/h 56 % 0.0 mm
14:06 21.2 °C 12.8 °C 1022.2 hPa WNW 29.6 km/h 29.6 km/h 59 % 0.0 mm
14:11 21.3 °C 12.4 °C 1022.2 hPa WNW 29.6 km/h 29.6 km/h 57 % 0.0 mm
14:16 21.4 °C 11.7 °C 1022.2 hPa WSW 29.6 km/h 29.6 km/h 54 % 0.0 mm
14:21 21.3 °C 12.2 °C 1022.2 hPa West 29.6 km/h 29.6 km/h 56 % 0.0 mm
14:26 21.2 °C 12.1 °C 1022.2 hPa WNW 29.6 km/h 29.6 km/h 56 % 0.0 mm
14:31 21.3 °C 12.2 °C 1022.2 hPa WSW 29.6 km/h 29.6 km/h 56 % 0.0 mm
14:36 21.6 °C 11.8 °C 1022.2 hPa WSW 29.6 km/h 29.6 km/h 54 % 0.0 mm
14:41 21.7 °C 12.2 °C 1022.2 hPa West 29.6 km/h 29.6 km/h 55 % 0.0 mm
14:46 21.7 °C 12.0 °C 1022.2 hPa WSW 29.6 km/h 29.6 km/h 54 % 0.0 mm
14:52 21.7 °C 12.2 °C 1022.2 hPa SW 29.6 km/h 29.6 km/h 55 % 0.0 mm
14:54 21.7 °C 12.2 °C 1022.2 hPa WSW 29.6 km/h 29.6 km/h 55 % 0.0 mm
14:59 21.4 °C 11.7 °C 1022.2 hPa WSW 29.6 km/h 29.6 km/h 54 % 0.0 mm
15:04 21.1 °C 11.7 °C 1022.2 hPa WSW 29.6 km/h 29.6 km/h 55 % 0.0 mm
15:09 21.2 °C 12.1 °C 1021.9 hPa WSW 29.6 km/h 29.6 km/h 56 % 0.0 mm
15:14 21.3 °C 12.2 °C 1021.9 hPa WSW 29.6 km/h 29.6 km/h 56 % 0.0 mm
15:19 21.3 °C 11.9 °C 1021.9 hPa SSW 29.6 km/h 29.6 km/h 55 % 0.0 mm
15:24 21.4 °C 12.2 °C 1022.2 hPa South 29.6 km/h 29.6 km/h 56 % 0.0 mm
15:29 21.7 °C 12.5 °C 1021.9 hPa NW 29.6 km/h 29.6 km/h 56 % 0.0 mm
15:34 22.0 °C 12.3 °C 1022.2 hPa SW 29.6 km/h 29.6 km/h 54 % 0.0 mm
15:39 21.9 °C 12.2 °C 1021.9 hPa WSW 29.6 km/h 29.6 km/h 54 % 0.0 mm
15:44 21.9 °C 12.2 °C 1021.9 hPa West 29.6 km/h 29.6 km/h 54 % 0.0 mm
15:49 22.1 °C 12.3 °C 1021.9 hPa SW 29.6 km/h 29.6 km/h 54 % 0.0 mm
15:54 22.1 °C 12.1 °C 1021.9 hPa SSW 29.6 km/h 29.6 km/h 53 % 0.0 mm
15:59 22.3 °C 12.5 °C 1021.9 hPa SSE 29.6 km/h 29.6 km/h 54 % 0.0 mm
16:04 22.1 °C 12.4 °C 1021.9 hPa WSW 29.6 km/h 29.6 km/h 54 % 0.0 mm
16:09 22.0 °C 12.3 °C 1021.6 hPa South 29.6 km/h 29.6 km/h 54 % 0.0 mm
16:14 22.1 °C 12.7 °C 1021.6 hPa SW 29.6 km/h 29.6 km/h 55 % 0.0 mm
16:19 22.0 °C 12.8 °C 1021.6 hPa SW 29.6 km/h 29.6 km/h 56 % 0.0 mm
16:24 21.8 °C 12.4 °C 1021.6 hPa West 29.6 km/h 29.6 km/h 55 % 0.0 mm
16:29 21.8 °C 12.7 °C 1021.6 hPa WSW 29.6 km/h 29.6 km/h 56 % 0.0 mm
16:34 21.8 °C 12.6 °C 1021.6 hPa WNW 29.6 km/h 29.6 km/h 56 % 0.0 mm
16:39 21.8 °C 12.6 °C 1021.6 hPa WSW 29.6 km/h 29.6 km/h 56 % 0.0 mm
16:44 21.8 °C 12.4 °C 1021.2 hPa WSW 29.6 km/h 29.6 km/h 55 % 0.0 mm
16:49 21.8 °C 12.6 °C 1021.2 hPa West 29.6 km/h 29.6 km/h 56 % 0.0 mm
16:54 21.7 °C 12.8 °C 1021.2 hPa West 29.6 km/h 29.6 km/h 57 % 0.0 mm
16:59 21.7 °C 12.6 °C 1021.2 hPa WSW 29.6 km/h 29.6 km/h 56 % 0.0 mm
17:04 21.6 °C 12.4 °C 1021.2 hPa WSW 29.6 km/h 29.6 km/h 56 % 0.0 mm
17:09 21.7 °C 13.1 °C 1021.2 hPa WSW 29.6 km/h 29.6 km/h 58 % 0.0 mm
17:14 22.0 °C 13.1 °C 1021.2 hPa SW 29.6 km/h 29.6 km/h 57 % 0.0 mm
17:19 22.4 °C 13.2 °C 1021.2 hPa SW 29.6 km/h 29.6 km/h 56 % 0.0 mm
17:24 22.7 °C 12.9 °C 1021.2 hPa SW 29.6 km/h 29.6 km/h 54 % 0.0 mm
17:29 22.7 °C 12.9 °C 1021.2 hPa SW 29.6 km/h 29.6 km/h 54 % 0.0 mm
17:34 22.7 °C 12.7 °C 1021.2 hPa WSW 29.6 km/h 29.6 km/h 53 % 0.0 mm
17:39 22.5 °C 12.4 °C 1021.2 hPa SSE 29.6 km/h 29.6 km/h 53 % 0.0 mm
17:44 22.4 °C 12.4 °C 1021.2 hPa SW 29.6 km/h 29.6 km/h 53 % 0.0 mm
17:49 22.4 °C 12.7 °C 1020.9 hPa SSW 29.6 km/h 29.6 km/h 54 % 0.0 mm
17:54 22.3 °C 12.8 °C 1020.9 hPa SSW 29.6 km/h 29.6 km/h 55 % 0.0 mm
17:59 22.2 °C 12.7 °C 1020.9 hPa SW 29.6 km/h 29.6 km/h 55 % 0.0 mm
18:05 22.1 °C 12.6 °C 1020.9 hPa WSW 29.6 km/h 29.6 km/h 55 % 0.0 mm
18:10 21.9 °C 13.0 °C 1020.9 hPa SSW 29.6 km/h 29.6 km/h 57 % 0.0 mm
18:15 22.0 °C 12.8 °C 1020.9 hPa West 29.6 km/h 29.6 km/h 56 % 0.0 mm
18:20 21.9 °C 12.5 °C 1020.9 hPa SSW 29.6 km/h 29.6 km/h 55 % 0.0 mm
18:23 21.9 °C 12.5 °C 1020.5 hPa South 29.6 km/h 29.6 km/h 55 % 0.0 mm
18:28 21.8 °C 12.4 °C 1020.5 hPa WSW 29.6 km/h 29.6 km/h 55 % 0.0 mm
18:33 21.8 °C 12.4 °C 1020.5 hPa SW 29.6 km/h 29.6 km/h 55 % 0.0 mm
18:38 21.8 °C 12.4 °C 1020.5 hPa South 29.6 km/h   55 % 0.0 mm
18:43 21.6 °C 12.4 °C 1020.5 hPa SSW 29.6 km/h   56 % 0.0 mm
18:48 21.6 °C 12.4 °C 1020.5 hPa WSW 29.6 km/h 29.6 km/h 56 % 0.0 mm
18:53 21.6 °C 12.4 °C 1020.5 hPa WSW 29.6 km/h 29.6 km/h 56 % 0.0 mm
18:58 21.7 °C 12.8 °C 1020.5 hPa WSW 29.6 km/h 29.6 km/h 57 % 0.0 mm
19:03 21.7 °C 12.6 °C 1020.5 hPa WSW 29.6 km/h 29.6 km/h 56 % 0.0 mm
19:08 21.7 °C 12.5 °C 1020.5 hPa WSW 29.6 km/h 29.6 km/h 56 % 0.0 mm
19:13 21.6 °C 12.7 °C 1020.5 hPa WSW 29.6 km/h   57 % 0.0 mm
19:18 21.3 °C 12.2 °C 1020.5 hPa South 29.6 km/h   56 % 0.0 mm
19:23 21.3 °C 12.4 °C 1020.5 hPa SSW 29.6 km/h   57 % 0.0 mm
19:28 21.2 °C 12.3 °C 1020.5 hPa West 29.6 km/h 29.6 km/h 57 % 0.0 mm
19:33 21.0 °C 12.2 °C 1020.5 hPa West 29.6 km/h   57 % 0.0 mm
19:38 20.8 °C 12.0 °C 1020.5 hPa West 29.6 km/h   57 % 0.0 mm
19:43 20.7 °C 12.1 °C 1020.5 hPa West 29.6 km/h   58 % 0.0 mm
19:48 20.5 °C 12.2 °C 1020.5 hPa West 29.6 km/h   59 % 0.0 mm
19:53 20.3 °C 12.3 °C 1020.9 hPa West 29.6 km/h   60 % 0.0 mm
19:58 20.1 °C 12.6 °C 1020.5 hPa West 29.6 km/h   62 % 0.0 mm
20:03 19.8 °C 12.8 °C 1020.9 hPa WSW 29.6 km/h 29.6 km/h 64 % 0.0 mm
20:08 19.6 °C 12.6 °C 1020.9 hPa WSW 29.6 km/h   64 % 0.0 mm
20:13 19.4 °C 12.6 °C 1020.5 hPa WSW 29.6 km/h   65 % 0.0 mm
20:18 19.2 °C 12.4 °C 1020.5 hPa WSW 29.6 km/h   65 % 0.0 mm
20:20 19.1 °C 12.4 °C 1020.5 hPa WSW 29.6 km/h   65 % 0.0 mm
20:21 19.1 °C 12.4 °C 1020.5 hPa WSW 29.6 km/h   65 % 0.0 mm
20:23 19.0 °C 12.3 °C 1020.5 hPa WSW 29.6 km/h   65 % 0.0 mm
20:25 18.9 °C 12.4 °C 1020.5 hPa WSW 29.6 km/h   66 % 0.0 mm
20:30 18.8 °C 12.6 °C 1020.9 hPa WSW 29.6 km/h   67 % 0.0 mm
20:35 18.7 °C 12.4 °C 1020.9 hPa WSW 29.6 km/h   67 % 0.0 mm
20:40 18.6 °C 12.3 °C 1020.9 hPa WSW 29.6 km/h   67 % 0.0 mm
20:45 18.4 °C 12.4 °C 1020.9 hPa WSW 29.6 km/h   68 % 0.0 mm
20:50 18.3 °C 12.3 °C 1020.9 hPa WSW 29.6 km/h   68 % 0.0 mm
20:55 18.2 °C 12.4 °C 1020.9 hPa WSW 29.6 km/h   69 % 0.0 mm
Ladner Weather
Compliments of Weather Underground - 3.25 mb

Script developed by  Jim McMurry - jmcmurry@mwt.net Adapted for the template by  Wim van der Kuil - Leuven-Template.eu